When you browse on this site, cookies collect data to enhance your experience and personalize the content and advertising you see.
Visit our Privacy Policy to learn more. By continuing to use the site, you agree to this use of cookies and data.

Stündliche Wetter Barra

Heute, 15 August, Samstag

Zeit Temperatur Niederschläge Wind Luftdruck Luftfeuchtigkeit
00:00 +28°C° 0 mm 3 m/S 758 mmHg 86%
01:00 +28°C° 0 mm 4 m/S 758 mmHg 86%
02:00 +28°C° 0 mm 4 m/S 757 mmHg 86%
03:00 +28°C° 0.1 mm 4 m/S 758 mmHg 86%
04:00 +28°C° 0.1 mm 4 m/S 758 mmHg 87%
05:00 +28°C° 0 mm 5 m/S 758 mmHg 88%
06:00 +28°C° 0.2 mm 5 m/S 758 mmHg 86%
07:00 +29°C° 0.2 mm 5 m/S 758 mmHg 84%
08:00 +29°C° 0.2 mm 5 m/S 758 mmHg 82%
09:00 +30°C° 0.4 mm 5 m/S 758 mmHg 78%
10:00 +32°C° 0.4 mm 5 m/S 758 mmHg 75%
11:00 +33°C° 0 mm 4 m/S 758 mmHg 68%
12:00 +33°C° 0 mm 5 m/S 757 mmHg 68%
13:00 +33°C° 0 mm 5 m/S 757 mmHg 68%
14:00 +33°C° 0 mm 5 m/S 756 mmHg 68%
15:00 +33°C° 0 mm 5 m/S 756 mmHg 70%
16:00 +32°C° 0 mm 5 m/S 755 mmHg 73%
17:00 +32°C° 0 mm 5 m/S 755 mmHg 75%
18:00 +30°C° 0 mm 5 m/S 755 mmHg 78%
19:00 +30°C° 0 mm 5 m/S 756 mmHg 81%
20:00 +29°C° 0 mm 6 m/S 756 mmHg 84%
21:00 +29°C° 0.1 mm 5 m/S 756 mmHg 84%
22:00 +29°C° 0.1 mm 5 m/S 756 mmHg 85%
23:00 +29°C° 0.1 mm 4 m/S 757 mmHg 85%

Morgen, 16 August, Sonntag

Zeit Temperatur Niederschläge Wind Luftdruck Luftfeuchtigkeit
00:00 +29°C° 0.6 mm 4 m/S 756 mmHg 86%
01:00 +29°C° 0.6 mm 4 m/S 756 mmHg 87%
02:00 +29°C° 0.6 mm 4 m/S 756 mmHg 87%
03:00 +28°C° 1.4 mm 4 m/S 756 mmHg 87%
04:00 +28°C° 1.4 mm 4 m/S 756 mmHg 88%
05:00 +28°C° 1.4 mm 4 m/S 756 mmHg 88%
06:00 +28°C° 5.8 mm 4 m/S 757 mmHg 87%
07:00 +27°C° 5.8 mm 4 m/S 757 mmHg 85%
08:00 +26°C° 5.8 mm 5 m/S 757 mmHg 84%
09:00 +28°C° 0 mm 4 m/S 757 mmHg 78%
10:00 +29°C° 0 mm 3 m/S 757 mmHg 73%
11:00 +31°C° 0 mm 2 m/S 757 mmHg 67%
12:00 +31°C° 0 mm 3 m/S 756 mmHg 70%
13:00 +30°C° 0 mm 4 m/S 756 mmHg 73%
14:00 +30°C° 0 mm 5 m/S 756 mmHg 75%
15:00 +30°C° 0 mm 3 m/S 756 mmHg 75%
16:00 +30°C° 0 mm 2 m/S 756 mmHg 75%
17:00 +30°C° 0 mm 1 m/S 755 mmHg 75%
18:00 +29°C° 0 mm 1 m/S 756 mmHg 77%
19:00 +29°C° 0 mm 2 m/S 756 mmHg 79%
20:00 +28°C° 0 mm 2 m/S 756 mmHg 81%
21:00 +28°C° 0 mm 2 m/S 757 mmHg 82%
22:00 +28°C° 0 mm 2 m/S 757 mmHg 82%
23:00 +28°C° 0 mm 3 m/S 757 mmHg 82%

übermorgen, 17 August, Montag

Zeit Temperatur Niederschläge Wind Luftdruck Luftfeuchtigkeit
00:00 +28°C° 0 mm 3 m/S 757 mmHg 84%
01:00 +28°C° 0 mm 3 m/S 757 mmHg 86%
02:00 +27°C° 0 mm 3 m/S 756 mmHg 88%
03:00 +27°C° 0 mm 3 m/S 756 mmHg 89%
04:00 +27°C° 0 mm 4 m/S 756 mmHg 90%
05:00 +27°C° 0 mm 4 m/S 756 mmHg 91%
06:00 +28°C° 0 mm 4 m/S 756 mmHg 88%
07:00 +28°C° 0 mm 4 m/S 757 mmHg 85%
08:00 +29°C° 0 mm 5 m/S 757 mmHg 82%
09:00 +30°C° 0 mm 5 m/S 757 mmHg 78%
10:00 +32°C° 0 mm 5 m/S 757 mmHg 75%
11:00 +33°C° 0 mm 5 m/S 758 mmHg 71%
12:00 +33°C° 0.2 mm 6 m/S 757 mmHg 71%
13:00 +33°C° 0.2 mm 7 m/S 757 mmHg 71%
14:00 +33°C° 0.2 mm 8 m/S 757 mmHg 71%
15:00 +33°C° 0.2 mm 7 m/S 757 mmHg 73%
16:00 +32°C° 0.2 mm 7 m/S 756 mmHg 75%
17:00 +30°C° 0.2 mm 7 m/S 756 mmHg 77%
18:00 +30°C° 0 mm 7 m/S 757 mmHg 79%
19:00 +29°C° 0 mm 7 m/S 758 mmHg 82%
20:00 +29°C° 0 mm 6 m/S 758 mmHg 84%
21:00 +29°C° 0 mm 6 m/S 758 mmHg 85%
22:00 +28°C° 0 mm 6 m/S 759 mmHg 86%
23:00 +28°C° 0 mm 6 m/S 759 mmHg 87%

18 August, Dienstag

Zeit Temperatur Niederschläge Wind Luftdruck Luftfeuchtigkeit
00:00 +28°C° 0.1 mm 5 m/S 758 mmHg 87%
01:00 +28°C° 0.1 mm 5 m/S 758 mmHg 88%
02:00 +28°C° 0.1 mm 5 m/S 758 mmHg 89%
03:00 +28°C° 0.3 mm 5 m/S 758 mmHg 89%
04:00 +28°C° 0.3 mm 4 m/S 758 mmHg 90%
05:00 +27°C° 0.3 mm 4 m/S 758 mmHg 90%
06:00 +28°C° 0.2 mm 4 m/S 758 mmHg 88%
07:00 +29°C° 0.2 mm 4 m/S 758 mmHg 85%
08:00 +29°C° 0.2 mm 4 m/S 759 mmHg 82%
09:00 +30°C° 0 mm 4 m/S 759 mmHg 78%
10:00 +32°C° 0 mm 5 m/S 759 mmHg 74%
11:00 +33°C° 0 mm 5 m/S 759 mmHg 70%
12:00 +33°C° 0 mm 5 m/S 758 mmHg 69%
13:00 +33°C° 0 mm 6 m/S 757 mmHg 69%
14:00 +33°C° 0 mm 6 m/S 757 mmHg 69%
15:00 +33°C° 0 mm 6 m/S 757 mmHg 71%
16:00 +32°C° 0 mm 7 m/S 756 mmHg 74%
17:00 +32°C° 0 mm 7 m/S 756 mmHg 76%
18:00 +30°C° 0 mm 7 m/S 757 mmHg 79%
19:00 +30°C° 0 mm 6 m/S 757 mmHg 81%
20:00 +29°C° 0 mm 6 m/S 758 mmHg 83%
21:00 +29°C° 0 mm 6 m/S 758 mmHg 83%
22:00 +29°C° 0 mm 6 m/S 758 mmHg 83%
23:00 +29°C° 0 mm 6 m/S 758 mmHg 84%

19 August, Mittwoch

Zeit Temperatur Niederschläge Wind Luftdruck Luftfeuchtigkeit
00:00 +29°C° 0.1 mm 6 m/S 757 mmHg 85%
01:00 +29°C° 0.1 mm 6 m/S 757 mmHg 85%
02:00 +29°C° 0.1 mm 6 m/S 757 mmHg 86%
03:00 +29°C° 0.1 mm 6 m/S 757 mmHg 86%
04:00 +29°C° 0.1 mm 6 m/S 756 mmHg 87%
05:00 +29°C° 0.1 mm 6 m/S 756 mmHg 87%
06:00 +29°C° 0.1 mm 6 m/S 756 mmHg 85%
07:00 +30°C° 0.1 mm 6 m/S 757 mmHg 83%
08:00 +30°C° 0.1 mm 6 m/S 757 mmHg 80%
09:00 +32°C° 0.2 mm 6 m/S 757 mmHg 77%
10:00 +33°C° 0.2 mm 5 m/S 757 mmHg 74%
11:00 +34°C° 0.2 mm 5 m/S 757 mmHg 70%
12:00 +34°C° 0 mm 5 m/S 756 mmHg 70%
13:00 +34°C° 0 mm 6 m/S 756 mmHg 70%
14:00 +34°C° 0 mm 6 m/S 755 mmHg 69%
15:00 +33°C° 0 mm 6 m/S 755 mmHg 71%
16:00 +33°C° 0 mm 6 m/S 754 mmHg 74%
17:00 +32°C° 0 mm 6 m/S 754 mmHg 76%
18:00 +30°C° 0 mm 5 m/S 755 mmHg 78%
19:00 +30°C° 0 mm 4 m/S 755 mmHg 80%
20:00 +29°C° 0 mm 4 m/S 756 mmHg 82%
21:00 +29°C° 0.2 mm 4 m/S 756 mmHg 83%
22:00 +29°C° 0.2 mm 4 m/S 756 mmHg 83%
23:00 +29°C° 0.2 mm 5 m/S 756 mmHg 84%

20 August, Donnerstag

Zeit Temperatur Niederschläge Wind Luftdruck Luftfeuchtigkeit
00:00 +29°C° 0 mm 5 m/S 756 mmHg 84%
01:00 +28°C° 0 mm 5 m/S 755 mmHg 83%
02:00 +28°C° 0 mm 5 m/S 754 mmHg 83%
03:00 +28°C° 0 mm 5 m/S 754 mmHg 83%
04:00 +28°C° 0 mm 5 m/S 755 mmHg 84%
05:00 +28°C° 0 mm 4 m/S 755 mmHg 84%
06:00 +28°C° 0 mm 4 m/S 755 mmHg 81%
07:00 +29°C° 0 mm 4 m/S 755 mmHg 78%
08:00 +30°C° 0 mm 3 m/S 756 mmHg 76%
09:00 +29°C° 0.1 mm 4 m/S 756 mmHg 77%
10:00 +29°C° 0.1 mm 5 m/S 756 mmHg 78%
11:00 +29°C° 0.1 mm 6 m/S 756 mmHg 80%
12:00 +28°C° 0.9 mm 5 m/S 756 mmHg 81%
13:00 +28°C° 0.9 mm 4 m/S 755 mmHg 82%
14:00 +28°C° 0.9 mm 3 m/S 755 mmHg 83%
15:00 +28°C° 0.6 mm 3 m/S 755 mmHg 85%
16:00 +27°C° 0.6 mm 3 m/S 754 mmHg 87%
17:00 +27°C° 0.6 mm 3 m/S 754 mmHg 88%
18:00 +26°C° 0.2 mm 3 m/S 755 mmHg 88%
19:00 +26°C° 0.2 mm 3 m/S 755 mmHg 89%
20:00 +26°C° 0.2 mm 3 m/S 756 mmHg 89%
21:00 +26°C° 0.2 mm 3 m/S 756 mmHg 89%
22:00 +26°C° 0.2 mm 4 m/S 756 mmHg 89%
23:00 +26°C° 0.2 mm 4 m/S 756 mmHg 89%
Mehr zeigen